Showing default

KANOPUS-V 5, 43876

Orbit data source: Space-Track

KANOPUS-V 5, 43876 is a payload satellite owned by VNIIEM (CIS) in SSO that was launched on Thu, 27 Dec 2018 UTC via a SOYUZ-2-1A launch vehicle from the Vostochny Cosmodrome (VOSTO). Payload-class satellites include a variety of spacecraft equipped with specific instruments for various scientific and technological missions. These include communications satellites like Starlink; space stations such as the ISS; scientific satellites like the Hubble; Earth observation satellites from companies like Planet Labs, Umbra, and HawkEye 360; GPS; miniature CubeSats for education and research; and military/defense satellites.

Loading next visibility...
Identifier
43876, 2018-111A
Orbit
SSO
Country
Flag of CISCIS
Related business
Manufacturer
VNIIEM
Mission
Operational Civil Imaging
Bus & Motor
KANOPUS, Unknown motor
Mass
473 kg wet, 473 kg dry
Launch date (UTC)
2018-12-27 (8 years ago)
Launch vehicle
SOYUZ-2-1A
Launch site
Vostochny Cosmodrome (VOSTO)
Object type
Payload
Rocket body
Debris
Shape & HBR
Box + 2 Pan, 3.0 m
Radar Cross Section
1.665 m², Large (>1 m²)

Expand to show TLE details & history
Last TLE update: 13 hours ago

TLE from 13 hours ago
0 KANOPUS-V 5
1 43876U 18111A   26255.26514350  .00001687  00000-0  76141-4 0  9991
2 43876  97.3476 158.9294 0001778  90.6594 269.4846 15.22338010428031
Epoch: 2026-09-12T06:21Z
TLE epoch observation values (Epoch: 2026-09-12T06:21:48.398Z)
Latitude
-0.00005°
Longitude
72.20112°
Altitude
501.897 km
Speed
7.613 km/s
True Right ascension
10h 35m 43s
True Declination
0° 00' 00"
Sunlit
Object was in daylight at epoch
Visualization orbit readout
Latitude
Unknown
Longitude
Unknown
Altitude
Unknown
Speed
Unknown
Apparent Right ascension
Unknown
Apparent Declination
Unknown
Sunlit
N/A
Visualization observer readout
Local Sidereal Time
11:46:35
Azimuth
Unknown
Elevation
Unknown
Doppler factor
Unknown
Orbital elements
Apogee altitude
496.973 km
Perigee altitude
494.529 km
Semi-major axis
6,873.888 km
Eccentricity
0.00018
Inclination
97.3476°
RAAN
158.9294°
Arg. of periapsis
90.6594°
True anomaly
269.46423°
Mean anomaly
269.4846°
Eccentric anomaly
269.47441°
Mean motion
3.80837 °/min
Orbital period
94.53 mins
BSTAR
0.000076141
Loading maneuver chart data...
Computing Atmospheric mass density...

Documentation

Showing up to 5 results
|